EW3281 Weather Reports


Display with metric or nautical units.
time (UTC)temp
F
wind
direction
speed
MPH
gust
MPH
rain 1hr
in
rain 24hr
in
rain mn
in
humidity
%
barometer
mb
20260510201055 70 213 0.0 2.0 0.00 0.44 0.00 67 1010.0
20260510200555 70 262 0.0 2.0 0.00 0.44 0.00 68 1010.0
20260510200054 70 198 0.0 1.0 0.00 0.44 0.00 70 1010.1
20260510195553 69 122 0.0 2.0 0.00 0.44 0.00 69 1010.1
20260510195153 69 187 0.0 0.0 0.00 0.44 0.00 70 1010.2
20260510194551 69 135 0.0 1.0 0.00 0.44 0.00 70 1010.2
20260510194052 69 117 0.0 4.0 0.00 0.44 0.00 70 1010.3
20260510193550 69 58 0.0 5.0 0.00 0.44 0.00 72 1010.2
20260510193051 68 127 0.0 5.0 0.00 0.44 0.00 72 1010.3
20260510192547 68 172 0.0 2.0 0.00 0.44 0.00 73 1010.4
20260510192046 68 141 0.0 1.0 0.00 0.44 0.00 73 1010.4
20260510191545 68 265 0.0 0.0 0.00 0.44 0.00 75 1010.6
20260510191044 67 174 0.0 0.0 0.00 0.44 0.00 75 1010.7
20260510190544 67 115 0.0 1.0 0.00 0.44 0.00 74 1010.7
20260510190051 67 97 0.0 1.0 0.00 0.44 0.00 74 1010.7
20260510185543 67 89 0.0 0.0 0.00 0.44 0.00 75 1010.7
20260510185142 67 217 0.0 1.0 0.00 0.44 0.00 75 1010.7
20260510184609 67 108 0.0 1.0 0.00 0.44 0.00 76 1010.6
20260510184046 67 96 0.0 0.0 0.00 0.44 0.00 77 1010.8
20260510183543 66 72 0.0 0.0 0.00 0.44 0.00 79 1010.6
20260510183041 65 344 0.0 2.0 0.00 0.44 0.00 79 1010.7
20260510182540 65 82 0.0 2.0 0.00 0.44 0.00 79 1010.8
20260510182040 64 64 0.0 1.0 0.00 0.44 0.00 78 1010.8
20260510181554 65 70 0.0 5.0 0.00 0.44 0.00 79 1010.8
20260510181039 65 54 0.0 4.0 0.00 0.44 0.00 77 1010.9
20260510180539 65 332 0.0 4.0 0.00 0.44 0.00 79 1010.9
20260510180051 65 77 0.0 3.0 0.00 0.44 0.00 78 1011.0
20260510175537 65 107 0.0 0.0 0.00 0.44 0.00 81 1011.1
20260510175138 64 359 0.0 1.0 0.00 0.44 0.00 80 1011.2
20260510174537 64 80 0.0 2.0 0.00 0.44 0.00 80 1011.3
20260510174037 64 101 0.0 2.0 0.00 0.44 0.00 80 1011.4
20260510173538 64 27 0.0 3.0 0.00 0.44 0.00 80 1011.4
20260510173036 65 63 0.0 3.0 0.00 0.44 0.00 78 1011.4
20260510172536 65 79 0.0 1.0 0.00 0.44 0.00 77 1011.3
20260510172037 66 173 0.0 1.0 0.00 0.44 0.00 77 1011.3
20260510171554 66 51 0.0 0.0 0.00 0.44 0.00 76 1011.3
20260510171035 67 174 0.0 1.0 0.00 0.44 0.00 76 1011.3
20260510170535 67 234 0.0 1.0 0.00 0.44 0.00 76 1011.3
20260510170034 67 85 0.0 0.0 0.00 0.44 0.00 78 1011.3
20260510165536 67 195 0.0 0.0 0.00 0.44 0.00 79 1011.2
20260510165132 66 54 0.0 0.0 0.00 0.44 0.00 80 1011.2
20260510164534 66 179 0.0 0.0 0.00 0.44 0.00 79 1011.2
20260510164032 65 79 0.0 0.0 0.00 0.44 0.00 79 1011.3
20260510163532 66 85 0.0 0.0 0.00 0.44 0.00 80 1011.3
20260510163030 65 348 0.0 0.0 0.00 0.44 0.00 81 1011.3
20260510162532 65 246 0.0 0.0 0.00 0.44 0.00 81 1011.3
20260510162028 64 234 0.0 0.0 0.00 0.44 0.00 81 1011.4
20260510161528 64 82 0.0 0.0 0.00 0.44 0.00 81 1011.4
20260510161028 64 127 0.0 0.0 0.00 0.44 0.00 80 1011.4
20260510160527 64 83 0.0 0.0 0.00 0.44 0.00 81 1011.5
20260510160027 64 197 0.0 0.0 0.00 0.44 0.00 82 1011.5
20260510155525 64 56 0.0 0.0 0.00 0.44 0.00 82 1011.5
20260510155124 63 107 0.0 0.0 0.00 0.44 0.00 84 1011.4
20260510154533 63 24 0.0 0.0 0.00 0.44 0.00 84 1011.4
20260510154024 63 124 0.0 0.0 0.00 0.44 0.00 83 1011.3
20260510153522 63 56 0.0 0.0 0.00 0.44 0.00 85 1011.3
20260510153039 62 207 0.0 0.0 0.00 0.44 0.44 86 1011.5
20260510152520 62 41 0.0 0.0 0.00 0.44 0.44 87 1011.6
20260510152019 61 33 0.0 0.0 0.00 0.44 0.44 87 1011.7
20260510151516 61 126 0.0 0.0 0.00 0.44 0.44 88 1011.7
20260510151015 60 74 0.0 0.0 0.00 0.44 0.44 90 1011.7
20260510150520 60 57 0.0 0.0 0.00 0.44 0.44 91 1011.7
20260510150013 59 1 0.0 0.0 0.00 0.44 0.44 93 1011.8
20260510145511 59 75 0.0 0.0 0.00 0.44 0.44 93 1011.9
20260510145112 58 80 0.0 0.0 0.00 0.44 0.44 94 1011.9
20260510144521 58 101 0.0 0.0 0.00 0.44 0.44 95 1011.9
20260510144008 57 233 0.0 0.0 0.00 0.44 0.44 95 1011.9
20260510143505 57 248 0.0 0.0 0.00 0.44 0.44 95 1011.9
20260510143004 57 258 0.0 0.0 0.00 0.44 0.44 96 1011.9
20260510142505 56 68 0.0 0.0 0.00 0.44 0.44 96 1011.9
20260510142003 56 201 0.0 0.0 0.00 0.44 0.44 96 1011.9
20260510141600 56 236 0.0 0.0 0.00 0.44 0.44 96 1011.9
20260510141100 56 63 0.0 0.0 0.00 0.44 0.44 96 1011.9
20260510140557 56 297 0.0 0.0 0.00 0.44 0.44 96 1011.9
20260510140057 55 33 0.0 0.0 0.00 0.44 0.44 96 1011.9
20260510135554 55 83 0.0 0.0 0.00 0.44 0.44 96 1011.9
20260510135058 55 236 0.0 0.0 0.00 0.44 0.44 96 1011.9
20260510134556 55 360 0.0 0.0 0.00 0.44 0.44 96 1011.9
20260510134053 55 261 0.0 0.0 0.00 0.44 0.44 96 1011.9
20260510133551 55 216 0.0 0.0 0.00 0.44 0.44 96 1011.9
20260510133049 55 264 0.0 0.0 0.00 0.45 0.44 96 1011.8
20260510132547 55 219 0.0 0.0 0.00 0.45 0.44 97 1011.8
20260510132046 55 204 0.0 0.0 0.00 0.45 0.44 96 1011.8
20260510131545 55 77 0.0 0.0 0.00 0.45 0.44 97 1011.8
20260510131046 55 43 0.0 0.0 0.00 0.45 0.44 97 1011.5
20260510130543 55 72 0.0 0.0 0.00 0.45 0.44 97 1011.2
20260510130041 55 72 0.0 0.0 0.00 0.45 0.44 97 1010.9
20260510125540 55 59 0.0 0.0 0.00 0.45 0.44 97 1010.9
20260510125037 55 30 0.0 2.0 0.00 0.45 0.44 97 1010.8
20260510124541 55 257 0.0 2.0 0.00 0.45 0.44 97 1010.7
20260510124037 55 79 0.0 2.0 0.00 0.45 0.44 97 1010.6
20260510123535 55 57 0.0 0.0 0.00 0.45 0.44 97 1010.5
20260510123034 54 65 0.0 0.0 0.00 0.45 0.44 97 1010.5
20260510122531 54 132 0.0 0.0 0.00 0.45 0.44 97 1010.8
20260510122030 54 81 0.0 0.0 0.00 0.45 0.44 97 1010.9
20260510121529 54 49 0.0 0.0 0.00 0.45 0.44 97 1011.0
20260510121028 54 277 0.0 0.0 0.00 0.45 0.44 97 1011.2
20260510120528 54 72 0.0 0.0 0.00 0.45 0.44 97 1011.2
20260510120024 54 51 0.0 0.0 0.00 0.45 0.44 97 1011.1
20260510115523 54 53 0.0 0.0 0.00 0.45 0.44 97 1011.2
20260510115025 54 36 0.0 0.0 0.00 0.45 0.44 97 1011.2
20260510114522 54 34 0.0 0.0 0.00 0.45 0.44 97 1011.3
20260510114021 54 13 0.0 0.0 0.00 0.45 0.44 97 1011.3
20260510113518 54 349 0.0 0.0 0.00 0.45 0.44 97 1011.3
20260510113021 54 349 0.0 0.0 0.00 0.45 0.44 97 1011.3
20260510112518 54 348 0.0 0.0 0.00 0.45 0.44 97 1011.2
20260510112015 54 347 0.0 0.0 0.00 0.45 0.44 97 1011.2
20260510111513 54 4 0.0 0.0 0.00 0.45 0.44 97 1011.1
20260510111016 53 285 0.0 0.0 0.00 0.45 0.44 97 1011.0
20260510110511 53 285 0.0 0.0 0.00 0.45 0.44 97 1011.1
20260510110015 0 0.0 0.0 0.00 0.45 0.44 1011.1
20260510105507 0 0.0 0.0 0.00 0.45 0.44 1011.1
20260510105008 0 0.0 0.0 0.00 0.45 0.44 1011.2
20260510104505 0 0.0 0.0 0.00 0.45 0.44 1011.2
20260510104004 0 0.0 0.0 0.00 0.45 0.44 1011.2
20260510103507 0 0.0 0.0 0.00 0.45 0.44 1011.2
20260510103001 0 0.0 0.0 0.00 0.45 0.44 1011.1
20260510102600 0 0.0 0.0 0.00 0.45 0.44 1011.1
20260510102059 0 0.0 0.0 0.00 0.45 0.44 1011.0
20260510101602 0 0.0 0.0 0.00 0.45 0.44 1010.9
20260510101055 0 0.0 0.0 0.00 0.45 0.44 1011.1
20260510100554 0 0.0 0.0 0.00 0.45 0.44 1011.1
20260510100056 0 0.0 0.0 0.00 0.45 0.44 1011.0
20260510095552 0 0.0 0.0 0.00 0.45 0.44 1010.9
20260510095050 0 0.0 0.0 0.00 0.45 0.44 1011.0
20260510094048 0 0.0 0.0 0.00 0.45 0.44 1010.9
20260510093546 0 0.0 0.0 0.00 0.45 0.44 1010.7
20260510093050 0 0.0 0.0 0.00 0.45 0.44 1010.7
20260510092547 0 0.0 0.0 0.00 0.45 0.44 1010.5
20260510092042 0 0.0 0.0 0.00 0.45 0.44 1010.4
20260510091541 0 0.0 0.0 0.00 0.45 0.44 1010.4
20260510091043 0 0.0 0.0 0.00 0.45 0.44 1010.4
20260510090541 0 0.0 0.0 0.00 0.45 0.44 1010.3
20260510090037 0 0.0 0.0 0.00 0.45 0.44 1010.3
20260510085535 0 0.0 0.0 0.00 0.45 0.44 1010.3
20260510085033 0 0.0 0.0 0.00 0.45 0.44 1010.2
20260510084032 0 0.0 0.0 0.00 0.45 0.44 1010.4
20260510083534 0 0.0 0.0 0.00 0.45 0.44 1010.4
20260510083030 0 0.0 0.0 0.00 0.45 0.44 1010.4
20260510082528 0 0.0 0.0 0.00 0.45 0.44 1010.4
20260510082027 0 0.0 0.0 0.00 0.45 0.44 1010.4
20260510081532 0 0.0 0.0 0.00 0.45 0.44 1010.4
20260510081024 0 0.0 0.0 0.00 0.45 0.44 1010.4
20260510080523 0 0.0 0.0 0.00 0.45 0.44 1010.4
20260510080022 0 0.0 0.0 0.00 0.45 0.44 1010.5
20260510075520 0 0.0 0.0 0.00 0.45 0.44 1010.4
20260510075019 0 0.0 0.0 0.00 0.45 0.44 1010.5
20260510074017 0 0.0 0.0 0.00 0.45 0.44 1010.4
20260510073515 0 0.0 0.0 0.00 0.45 0.44 1010.3
20260510073014 0 0.0 0.0 0.00 0.45 0.44 1010.2
20260510072512 0 0.0 0.0 0.00 0.45 0.44 1010.1
20260510072012 0 0.0 0.0 0.00 0.45 0.44 1010.1
20260510071510 0 0.0 0.0 0.00 0.45 0.44 1009.9
20260510071008 -90 321 0.0 0.0 0.00 0.45 0.44 96 1009.9
20260510070507 -90 321 0.0 0.0 0.00 0.45 0.44 96 1009.9
20260510070008 52 188 0.0 0.0 0.00 0.45 0.44 97 1009.9
20260510065510 52 186 0.0 0.0 0.00 0.45 0.44 97 1009.9
20260510065008 52 355 0.0 0.0 0.00 0.45 0.44 97 1009.8
20260510064005 52 290 0.0 0.0 0.00 0.45 0.44 97 1009.9
20260510063505 52 283 0.0 0.0 0.00 0.45 0.44 97 1009.8
20260510063005 52 246 0.0 0.0 0.00 0.45 0.44 97 1009.9
20260510062506 52 210 0.0 1.0 0.00 0.45 0.44 97 1009.9
20260510062005 52 210 0.0 0.0 0.00 0.45 0.44 97 1009.9
20260510061509 52 79 0.0 0.0 0.00 0.45 0.44 97 1009.9
20260510061005 52 282 0.0 0.0 0.00 0.45 0.44 97 1010.0
20260510060504 52 127 0.0 0.0 0.00 0.45 0.44 96 1010.0
20260510060006 52 124 0.0 0.0 0.00 0.45 0.44 96 1010.2
20260510055504 52 122 0.0 0.0 0.00 0.45 0.44 96 1010.0
20260510055004 52 27 0.0 1.0 0.00 0.45 0.44 96 1010.0
20260510054005 52 259 0.0 0.0 0.00 0.45 0.44 96 1010.0
20260510053505 52 289 0.0 0.0 0.00 0.45 0.44 96 1009.9
20260510053004 52 77 0.0 0.0 0.00 0.45 0.44 96 1010.0
20260510052503 52 68 0.0 0.0 0.00 0.45 0.44 96 1009.9
20260510052003 52 300 0.0 0.0 0.00 0.45 0.44 96 1009.9
20260510051503 52 23 0.0 0.0 0.00 0.45 0.44 96 1009.9
20260510051003 52 15 0.0 0.0 0.00 0.45 0.44 96 1009.9
20260510050503 52 359 0.0 0.0 0.00 0.45 0.44 96 1009.9
20260510050003 52 44 0.0 0.0 0.00 0.45 0.44 96 1009.9
20260510045503 52 42 0.0 0.0 0.00 0.45 0.44 96 1009.9
20260510045003 52 31 0.0 0.0 0.00 0.45 0.44 96 1010.0
20260510044002 52 27 0.0 0.0 0.00 0.45 0.44 96 1009.9
20260510043502 52 350 0.0 0.0 0.00 0.45 0.44 96 1009.9
20260510043001 52 319 0.0 0.0 0.00 0.45 0.44 96 1010.0
20260510042503 52 319 0.0 0.0 0.00 0.45 0.44 96 1009.9
20260510042001 52 66 0.0 0.0 0.00 0.45 0.44 96 1009.8
20260510041607 52 67 0.0 0.0 0.00 0.45 0.44 96 1009.9
20260510041100 52 67 0.0 0.0 0.00 0.45 0.44 96 1010.0
20260510040600 51 70 0.0 0.0 0.00 0.45 0.44 96 1010.1
20260510040107 51 30 0.0 0.0 0.00 0.45 0.44 96 1010.0
20260510035558 51 30 0.0 0.0 0.00 0.45 0.44 96 1010.1
20260510035103 51 286 0.0 0.0 0.00 0.45 0.44 96 1010.0
20260510034036 51 286 0.0 0.0 0.00 0.45 0.44 96 1010.2
20260510033536 51 286 0.0 0.0 0.00 0.45 0.44 96 1010.2
20260510033034 51 286 0.0 0.0 0.00 0.45 0.44 96 1010.2
20260510032535 51 286 0.0 0.0 0.00 0.45 0.44 96 1010.1
20260510032037 51 286 0.0 0.0 0.00 0.45 0.44 96 1010.1
20260510031540 52 286 0.0 0.0 0.00 0.45 0.44 96 1010.3
20260510031033 52 286 0.0 0.0 0.00 0.45 0.44 96 1010.4
20260510030534 51 286 0.0 0.0 0.01 0.45 0.44 96 1010.4
20260510030036 51 286 0.0 0.0 0.01 0.45 0.44 96 1010.5
20260510025533 51 286 0.0 0.0 0.02 0.45 0.44 96 1010.5
20260510025033 51 286 0.0 0.0 0.02 0.45 0.44 96 1010.5
20260510024034 51 286 0.0 0.0 0.03 0.45 0.44 96 1010.6
20260510023534 51 286 0.0 0.0 0.03 0.45 0.44 96 1010.6
20260510023041 51 286 0.0 0.0 0.03 0.45 0.44 96 1010.6
20260510022536 51 286 0.0 0.0 0.03 0.45 0.44 96 1010.6
20260510022033 51 356 0.0 0.0 0.03 0.45 0.44 95 1010.6
20260510021536 51 356 0.0 0.0 0.03 0.45 0.44 95 1010.7
20260510021033 51 356 0.0 0.0 0.03 0.45 0.44 95 1010.8
20260510020534 51 356 0.0 0.0 0.03 0.45 0.44 95 1010.9
20260510020033 51 356 0.0 0.0 0.02 0.44 0.43 95 1011.0
20260510015536 51 356 0.0 0.0 0.02 0.44 0.43 95 1011.0
20260510015034 51 356 0.0 0.0 0.01 0.43 0.42 95 1011.0
20260510014022 51 356 0.0 0.0 0.01 0.43 0.42 95 1011.2
20260510013525 51 356 0.0 0.0 0.00 0.42 0.41 95 1011.2
20260510013023 51 356 0.0 0.0 0.00 0.42 0.41 95 1011.3
20260510012521 51 356 0.0 0.0 0.00 0.42 0.41 95 1011.3
20260510012023 51 356 0.0 0.0 0.00 0.42 0.41 95 1011.3
20260510011522 51 356 0.0 0.0 0.00 0.42 0.41 95 1011.3
20260510011021 51 356 0.0 0.0 0.00 0.42 0.41 95 1011.3
20260510010521 51 358 0.0 0.0 0.00 0.42 0.41 95 1011.3
20260510010021 51 358 0.0 0.0 0.00 0.42 0.41 95 1011.1
20260510005521 51 358 0.0 0.0 0.00 0.42 0.41 94 1011.3
20260510005021 51 358 0.0 0.0 0.00 0.42 0.41 94 1011.4
20260510004058 51 358 0.0 0.0 0.00 0.42 0.41 94 1011.4
20260510003558 52 358 0.0 0.0 0.00 0.42 0.41 94 1011.4
20260510003103 52 347 0.0 0.0 0.00 0.42 0.41 94 1011.4
20260510002557 52 347 0.0 0.0 0.00 0.42 0.41 94 1011.4
20260510002057 52 322 0.0 0.0 0.00 0.42 0.41 94 1011.4
20260510001556 52 65 0.0 0.0 0.00 0.42 0.41 95 1011.4
20260510001056 52 87 0.0 0.0 0.01 0.42 0.41 95 1011.4
20260510000554 52 89 0.0 0.0 0.01 0.42 0.41 95 1011.4
20260510000054 53 89 0.0 0.0 0.01 0.42 0.41 95 1011.3
20260509235553 53 318 0.0 0.0 0.01 0.42 0.41 95 1011.3
20260509235053 53 43 0.0 0.0 0.01 0.42 0.41 95 1011.3
20260509234015 53 84 0.0 0.0 0.02 0.42 0.41 95 1011.4
20260509233513 53 11 0.0 0.0 0.02 0.42 0.41 95 1011.4
20260509233012 53 61 0.0 0.0 0.02 0.42 0.41 95 1011.5
20260509232512 53 16 0.0 1.0 0.02 0.42 0.41 95 1011.4
20260509232012 54 49 0.0 1.0 0.02 0.42 0.41 95 1011.4
20260509231512 54 29 0.0 0.0 0.02 0.42 0.41 95 1011.5
20260509231011 54 345 0.0 0.0 0.01 0.41 0.40 95 1011.5
20260509230515 54 284 0.0 0.0 0.01 0.41 0.40 95 1011.5
20260509230011 54 23 0.0 0.0 0.02 0.41 0.40 95 1011.4
20260509225511 54 118 0.0 0.0 0.03 0.41 0.40 95 1011.4
20260509225010 54 50 0.0 0.0 0.13 0.41 0.40 95 1011.4
20260509224053 54 59 0.0 0.0 0.16 0.41 0.40 95 1011.3
20260509223553 54 59 0.0 0.0 0.17 0.40 0.39 95 1011.4
20260509223053 54 62 0.0 0.0 0.20 0.40 0.39 95 1011.3
20260509222552 54 44 0.0 1.0 0.22 0.40 0.39 95 1011.2
20260509222052 54 44 0.0 1.0 0.25 0.40 0.39 95 1011.2
20260509221552 54 266 0.0 0.0 0.27 0.40 0.39 95 1011.3
20260509221056 54 330 0.0 1.0 0.30 0.40 0.39 94 1011.2
20260509220551 54 320 0.0 1.0 0.30 0.40 0.39 94 1011.3
20260509220055 54 44 0.0 0.0 0.28 0.39 0.38 94 1011.2
20260509215551 54 190 0.0 0.0 0.28 0.39 0.38 94 1011.0
20260509215051 55 82 0.0 0.0 0.20 0.28 0.28 94 1011.0
20260509214040 55 107 0.0 0.0 0.18 0.27 0.26 94 1010.9
20260509213540 55 34 0.0 0.0 0.16 0.25 0.24 93 1010.9
20260509213040 55 349 0.0 0.0 0.12 0.21 0.20 93 1010.9
20260509212539 55 37 0.0 0.0 0.13 0.19 0.18 93 1010.9
20260509212038 55 33 0.0 0.0 0.10 0.16 0.15 93 1010.9
20260509211545 55 304 0.0 0.0 0.08 0.14 0.13 93 1010.9
20260509211038 55 276 0.0 0.0 0.09 0.12 0.11 93 1010.9
20260509210538 55 248 0.0 0.0 0.09 0.10 0.09 92 1010.8
20260509210040 55 230 0.0 1.0 0.09 0.10 0.09 92 1010.7
20260509205537 55 207 0.0 0.0 0.09 0.10 0.09 92 1010.6
20260509205040 55 220 0.0 0.0 0.08 0.09 0.08 92 1010.8
20260509204036 55 357 0.0 0.0 0.08 0.09 0.08 92 1010.5
20260509203536 55 21 0.0 0.0 0.08 0.09 0.08 91 1010.5
20260509203036 55 250 0.0 0.0 0.08 0.09 0.08 91 1010.4
20260509202534 56 26 0.0 0.0 0.08 0.09 0.08 90 1010.3
20260509202037 56 29 0.0 0.0 0.05 0.06 0.05 89 1010.4
20260509201534 56 117 0.0 0.0 0.05 0.06 0.05 88 1010.4